#timestamp,LO_Frequency,Hit 
1499083215.9,286047002.9,N
1499083235.7,286047004.2,N
1499083255.5,286047003.9,N
1499083275.4,286047002.1,N
1499083295.2,286047001.4,N
1499083315.1,286047002.6,N
1499083316.0,286047002.6,N
1499083335.8,286046999.7,N
1499083355.6,286047002.5,N
1499083375.5,286047000.4,N
1499083395.3,286047004.0,N
1499083415.1,286047004.1,N
1499083435.9,286047004.5,N
1499083455.7,286047001.7,N
1499083475.6,286047000.7,N
1499083495.4,286046998.3,N
1499083515.2,286046998.5,N
1499083535.1,286047000.5,N
1499083536.0,286047000.5,N
1499083555.8,286047002.4,N
1499083575.6,286047001.5,N
1499083595.5,286047001.7,N
1499083615.3,286047002.6,N
1499083635.2,286047002.6,N
1499083655.9,286047004.4,N
1499083675.7,286047001.5,N
1499083695.6,286047001.6,N
1499083715.4,286047003.5,N
1499083735.2,286047004.4,N
1499083755.1,286047003.3,N
1499083756.0,286047003.3,N
1499083775.8,286047002.9,N
1499083795.7,286047001.6,N
1499083815.5,286047002.5,N
1499083835.4,286047002.6,N
1499083855.2,286047001.7,N
1499083875.0,286047000.6,N
1499083875.9,286047000.6,N
1499083895.8,286047003.7,N
1499083915.6,286047002.0,N
1499083935.4,286047002.5,N
1499083955.3,286047002.1,N
1499083975.1,286047002.3,N
1499083995.9,286047003.3,N
1499084015.7,286047005.8,N
1499084035.5,286047004.3,N
1499084055.4,286047001.3,N
1499084075.2,286047004.4,N
1499084095.0,286047004.1,N
1499084095.9,286047004.1,N
1499084115.8,286047005.5,N
1499084135.6,286047003.5,N
1499084155.5,286047005.1,N
1499084175.3,286047007.5,Y
1499084195.1,286047003.3,N
1499084215.9,286047001.4,N
1499084235.7,286047004.1,N
1499084255.5,286047001.4,N
1499084275.4,286047000.5,N
1499084295.2,286046999.9,N
1499084315.1,286047001.0,N
1499084316.0,286047001.0,N
1499084335.8,286046998.2,N
1499084355.6,286047001.1,N
1499084375.5,286047000.0,N
1499084395.3,286046999.8,N
1499084415.2,286047001.7,N
1499084435.9,286047003.5,N
1499084455.7,286047005.1,N
1499084475.6,286046999.7,N
1499084495.4,286047001.1,N
1499084515.2,286046998.9,N
1499084535.1,286047000.7,N
1499084536.0,286047000.7,N
1499084555.8,286047000.3,N
1499084575.7,286046999.0,N
1499084595.5,286046999.2,N
1499084615.3,286046996.5,N
1499084635.2,286046998.8,N
1499084655.0,286047001.2,N
1499084655.9,286047001.2,N
1499084675.8,286047000.1,N
1499084695.6,286047000.0,N
1499084715.4,286046998.5,N
1499084735.3,286046996.5,N
1499084755.1,286046998.2,N
1499084775.8,286046998.7,N
1499084795.7,286046999.4,N
1499084815.5,286046998.6,N
1499084835.4,286046999.0,N
1499084855.2,286046998.6,N
1499084875.0,286046998.2,N
1499084875.9,286046998.2,N
1499084895.8,286046999.2,N
1499084915.6,286046997.7,N
1499084935.4,286046998.0,N
1499084955.3,286046999.4,N
1499084975.1,286046998.7,N
1499084995.9,286046996.6,N
1499085015.7,286046999.6,N
1499085035.5,286047001.2,N
1499085055.4,286046999.0,N
1499085075.2,286046999.1,N
1499085095.1,286046997.0,N
1499085126.0,286046999.3,Y
1499085135.0,286046998.6,N
1499085135.9,286046998.6,N
1499085155.8,286046998.1,N
1499085175.6,286046998.2,N
1499085195.4,286046999.7,N
1499085215.3,286047002.8,N
1499085235.1,286047000.7,N
1499085255.8,286046999.1,N
1499085275.7,286046998.4,N
1499085295.5,286046997.5,N
1499085315.4,286046997.0,N
1499085335.2,286046996.5,N
1499085355.0,286046996.9,N
1499085355.9,286046996.9,N
1499085375.8,286046996.9,N
1499085395.6,286046998.8,N
1499085415.4,286046996.7,N
1499085435.3,286046999.6,N
1499085455.1,286046997.1,N
1499085475.9,286046999.3,N
1499085495.7,286046999.0,N
1499085515.5,286046997.1,N
1499085535.4,286046997.7,N
1499085555.2,286046996.3,N
1499085575.0,286046996.3,N
1499085575.9,286046996.3,N
1499085595.8,286046994.0,N
1499085615.6,286046996.3,N
1499085635.5,286046993.6,N
1499085655.3,286046996.1,N
1499085675.1,286046995.1,N
1499085695.9,286046995.3,N
1499085715.7,286046993.6,N
1499085735.5,286046992.4,Y
1499085755.4,286046994.8,N
1499085775.2,286046996.3,N
1499085795.1,286046993.7,N
1499085796.0,286046993.7,N
1499085815.8,286046993.4,N
1499085835.6,286046993.7,N
1499085855.5,286046996.1,N
1499085875.3,286046996.2,N
1499085895.1,286046995.1,N
1499085915.9,286046994.5,N
1499085935.7,286046986.3,Y
1499085955.6,286046993.4,N
1499085975.4,286046996.1,N
1499085995.2,286046994.9,N
1499086015.1,286046995.6,N
1499086016.0,286046995.6,N
1499086035.8,286046995.8,N
1499086055.6,286046995.1,N
1499086075.5,286046996.0,N
1499086095.3,286046993.7,N
1499086115.2,286046996.2,N
1499086135.9,286046995.0,N
1499086155.7,286046996.0,N
1499086175.6,286046993.7,N
1499086195.4,286046991.7,Y
1499086215.3,286046997.0,N
1499086235.1,286046999.6,N
1499086236.0,286046999.6,N
1499086255.8,286046999.4,N
1499086275.7,286046997.0,N
1499086295.5,286046996.5,N
1499086315.4,286046997.8,N
1499086335.2,286046996.9,N
1499086355.0,286046998.8,N
1499086355.9,286046998.8,N
1499086375.8,286046999.1,N
1499086395.6,286046998.7,N
1499086415.4,286046998.9,N
1499086435.3,286046998.1,N
1499086455.1,286046998.4,N
1499086475.9,286046998.5,N
1499086495.7,286047001.2,N
1499086515.5,286047000.2,N
1499086535.4,286047001.3,N
1499086555.2,286047000.5,N
1499086575.0,286046998.5,N
1499086575.9,286046998.5,N
1499086595.8,286046999.4,N
1499086615.6,286046998.2,N
1499086635.5,286046997.6,N
1499086655.3,286046995.2,N
1499086675.1,286046997.7,N
1499086695.9,286046996.6,N
1499086715.7,286046998.5,N
1499086735.6,286046998.9,N
1499086755.4,286046999.0,N
1499086775.2,286046999.2,N
1499086795.1,286046996.7,N
1499086796.0,286046996.7,N
